This is the latest recevied weather packets stored in our database for station/object EA7OC-10. If no packets are shown the sender has not sent any weather packets the latest 10 day(s).
| Time | Temp. | Humidity | Pressure | Rain* | Wind** | Luminosity | Snow |
|---|---|---|---|---|---|---|---|
| 1777430001 | 20° C | 37% | 1010.3 hPa | - | - | - | - |
| 1777429100 | 20.56° C | 37% | 1010.2 hPa | - | - | - | - |
| 1777428200 | 20.56° C | 37% | 1010.3 hPa | - | - | - | - |
| 1777427300 | 20.56° C | 38% | 1010.5 hPa | - | - | - | - |
| 1777426400 | 20.56° C | 37% | 1010.5 hPa | - | - | - | - |
| 1777425500 | 20.56° C | 37% | 1010.7 hPa | - | - | - | - |
| 1777424600 | 20.56° C | 37% | 1010.8 hPa | - | - | - | - |
| 1777423700 | 20.56° C | 37% | 1010.8 hPa | - | - | - | - |
| 1777422800 | 20.56° C | 36% | 1011.2 hPa | - | - | - | - |
| 1777421900 | 21.11° C | 36% | 1011.3 hPa | - | - | - | - |
| 1777420999 | 21.11° C | 36% | 1011.4 hPa | - | - | - | - |
| 1777420099 | 20.56° C | 35% | 1011.4 hPa | - | - | - | - |
| 1777419199 | 21.11° C | 35% | 1011.2 hPa | - | - | - | - |
| 1777418299 | 21.67° C | 35% | 1011.4 hPa | - | - | - | - |
| 1777417399 | 21.67° C | 35% | 1011.5 hPa | - | - | - | - |
| 1777416499 | 22.22° C | 35% | 1011.5 hPa | - | - | - | - |
| 1777415599 | 21.67° C | 35% | 1011.6 hPa | - | - | - | - |
| 1777414699 | 21.67° C | 36% | 1011.5 hPa | - | - | - | - |
| 1777413799 | 21.67° C | 35% | 1011.2 hPa | - | - | - | - |
| 1777412899 | 21.11° C | 35% | 1011 hPa | - | - | - | - |
| 1777411998 | 21.67° C | 35% | 1010.8 hPa | - | - | - | - |
| 1777411098 | 22.22° C | 35% | 1010.8 hPa | - | - | - | - |
| 1777410198 | 22.22° C | 35% | 1010.7 hPa | - | - | - | - |
| 1777409298 | 22.22° C | 35% | 1010.7 hPa | - | - | - | - |
| 1777408398 | 22.78° C | 34% | 1010.6 hPa | - | - | - | - |
* Rain since midnight (hover to see other rain measurements)
** Current wind speed in m/s (hover to see current wind gust speed)